User: anonymous   Login
Location: Grisols
(45.0093°N, 3.1167°E)
Time: 22:38:31
(UTC+00:00)
Language:

Cosmos 1461 - Orbit

View from above orbital plane
View from above orbital plane
View from above satellite
View from above satellite

Ground track
Ground track

The orbit data is extracted from the following two-line orbital elements,

1 14064U 83044A   19339.44010971  .00000170  00000-0  29569-4 0  9998
2 14064  65.0019  14.0289 0088107  39.9159 320.8390 14.94544005858004
Epoch (UTC): 05 December 2019 10:33:45
Eccentricity: 0.0088107
inclination: 65.0019°
perigee height: 522 km
apogee height: 645 km
right ascension of ascending node: 14.0289°
argument of perigee: 39.9159°
revolutions per day: 14.94544005
mean anomaly at epoch: 320.8390°
orbit number at epoch: 85800

The dashed part of the orbit path shows where the satellite is in the earth's shadow,  

DLR